Location: Peterborough
(44.3091°N, 78.3197°W)
Time: 01:17:16
(UTC-04:00)

SR - Pass Details

Date: 24 March 2023
Orbit: 581 x 867 km, 66.7° (Epoch: 02 June)

Event Time Altitude Azimuth Distance (km) Brightness Sun altitude
Rises 13:30:04 0° 314° (NW) 2,822 ? 47.1°
Reaches altitude 10° 13:32:41 10° 298° (WNW) 1,937 ? 47.1°
Maximum altitude 13:35:56 21° 249° (WSW) 1,387 ? 47.1°
Drops below altitude 10° 13:39:18 10° 201° (SSW) 2,012 ? 47.0°
Sets 13:42:05 0° 185° (S) 2,966 ? 46.9°
